User: anonymous
Location: Caltech
(34.1382°N, 118.1253°W)
Time: 07:53:04
(UTC-07:00)
Language:

Meteor 2-4 Rocket - Orbit

View from above orbital plane
View from above orbital plane
View from above satellite
View from above satellite

Ground track
Ground track

The orbit data is extracted from the following two-line orbital elements,

1 11289U 79021B   14110.42577172  .00000073  00000-0  32882-4 0  6110
2 11289 081.2486 209.6615 0075025 266.9126 162.4285 14.11422064808078
Epoch (UTC): 20 April 2014 10:13:06
Eccentricity: 0.0075025
inclination: 81.2486°
perigee height: 800 km
apogee height: 909 km
right ascension of ascending node: 209.6615°
argument of perigee: 266.9126°
revolutions per day: 14.11422064
mean anomaly at epoch: 162.4285°
orbit number at epoch: 80807

The dashed part of the orbit path shows where the satellite is in the earth's shadow,  

DLR